Location: Newark
(49.8348°N, 24.0280°E)
Time: 11:28:25
(UTC+00:00)

Explorer 7 - Pass Details

Date: 26 January 2020
Orbit: 485 x 679 km, 50.3° (Epoch: 23 February)

Event Time Altitude Azimuth Distance (km) Brightness Sun altitude
Rises 19:24:35 0° 188° (S) 2,584 - -40.9°
Reaches altitude 10° 19:28:26 10° 149° (SSE) 1,678 - -41.4°
Maximum altitude 19:29:18 11° 136° (SE) 1,634 - -41.6°
Drops below altitude 10° 19:30:10 10° 122° (ESE) 1,672 - -41.7°
Sets 19:33:58 0° 83° (E) 2,550 - -42.2°
